Regional Weather Roundup
Issued by NWS Cleveland, OH

Home | Current Version | Previous Version | Text Only | Print | Product List | Glossary Off
Versions: 1 2 3 4 5 6 7 8 9 10 11 12 13 14 15 16 17 18 19 20 21 22 23 24 25 26 27 28 29 30 31 32 33 34 35 36 37 38 39 40 41 42 43 44 45 46 47 48 49 50

000
ASUS41 KCLE 101400
RWRCLE
OHIO REGIONAL WEATHER ROUNDUP
NATIONAL WEATHER SERVICE WILMINGTON, OH
900 AM EST WED FEB 10 2016

NOTE: "FAIR" INDICATES FEW OR NO CLOUDS BELOW 12,000 FEET WITH NO
SIGNIFICANT WEATHER AND/OR OBSTRUCTIONS TO VISIBILITY.

OHZ001>008-015>018-024>027-034-035-043-044-101500-
   NORTHWEST OHIO

CITY           SKY/WX    TMP DP  RH WIND       PRES   REMARKS
DEFIANCE       LGT SNOW  20  15  81 SW5       29.87S VSB 1   WCI  13
FINDLAY        LGT SNOW  18  12  77 W17       29.85R WCI   3
TOLEDO EXPRESS FAIR      19  12  74 W13       29.84R WCI   6
TOLEDO EXEC    CLOUDY    21  13  71 W15       29.84R WCI   8
LIMA           CLOUDY    15  11  83 W16       29.87R FOG     WCI  -1
$$

OHZ009>014-019>023-028>033-038-089-101500-
   NORTHEAST OHIO

CITY           SKY/WX    TMP DP  RH WIND       PRES   REMARKS
CLE-HOPKINS    LGT SNOW  20  14  77 SW14      29.81R WCI   7
CLE-LAKEFRONT  LGT SNOW  22  17  81 SW22      29.78S WCI   6
CUY CO. ARPT   LGT SNOW  23  18  80 W17G23    29.76  BLWGSNOWWCI   9
LORAIN-ELYRIA  LGT SNOW  20  14  77 W16       29.80S WCI   6
ASHTABULA      FLURRIES  22  18  85 SW14      29.73S WCI   9
AKRON-CANTON   LGT SNOW  18  13  80 SW12      29.78S VSB 1   WCI   5
WOOSTER        NOT AVBL
MANSFIELD      LGT SNOW  16  13  88 SW12      29.79S FOG     WCI   3
YOUNGSTOWN     LGT SNOW  21  15  78 SW10G22   29.75R FOG     WCI  10
$$

OHZ042-051>053-060>062-070>072-077>081-101500-
  SOUTHWEST OHIO

CITY           SKY/WX    TMP DP  RH WIND       PRES   REMARKS
CINC-COVINGTON CLOUDY    14   7  73 W16       29.99R WCI  -2
CINC-LUNKEN    FLURRIES  16   9  74 W16       30.03R WCI   1
HAMILTON       LGT SNOW  16   9  74 W10       30.00S WCI   4
DAYTON         LGT SNOW  14  10  84 W17       29.92R FOG     WCI  -3
WRIGHT-PAT AFB NOT AVBL
DAYTON GENERAL LGT SNOW  14   8  77 W15G21    29.93R WCI  -1
WILMINGTON     LGT SNOW  14  10  84 W17G25    29.92R VSB 3/4 WCI  -3
$$

OHZ036-037-039>041-045>050-054>059-063>069-073>076-082>088-101500-
  CENTRAL AND SOUTHEAST OHIO

CITY           SKY/WX    TMP DP  RH WIND       PRES   REMARKS
COLUMBUS       LGT SNOW  16  10  77 W9        29.89S VSB 1   WCI   4
OSU AIRPORT    LGT SNOW  16  12  84 W13       29.88R FOG     WCI   2
BOLTON FIELD   LGT SNOW  16  10  79 W12G18    29.90R WCI   3
RICKENBACK AFB NOT AVBL
NEWARK         LGT SNOW  16  10  77 MISG      29.88R
MARION         LGT SNOW  17  10  74 W10       29.85R WCI   5
LANCASTER      LGT SNOW  16  11  80 SW12      29.91R WCI   3
ZANESVILLE     LGT SNOW  17  10  74 SW12      29.89R WCI   4
NEW PHILLY     LGT SNOW  17  11  77 SW8G17    29.86R WCI   7
$$



USA.gov is the U.S. government's official web portal to all federal, state and local government web resources and services.